Regional Weather Roundup
Issued by NWS Charleston, SC

Current Version | Previous Version | Graphics & Text | Print | Product List | Glossary On
Versions: 1 2 3 4 5 6 7 8 9 10 11 12 13 14 15 16 17 18 19 20 21 22 23 24 25 26 27 28 29 30 31 32 33 34 35 36 37 38 39 40 41 42 43 44 45 46 47 48 49 50
000
ASUS42 KCHS 220525
RWRCHS

REGIONAL WEATHER ROUNDUP
NATIONAL WEATHER SERVICE CHARLESTON SC
100 AM EDT WED OCT 22 2014

NOTE: "FAIR" INDICATES FEW OR NO CLOUDS BELOW 12,000 FEET WITH NO
SIGNIFICANT WEATHER AND/OR OBSTRUCTIONS TO VISIBILITY.

NOT ALL STATIONS ARE QUALITY CONTROLLED BY THE NATIONAL
WEATHER SERVICE. USE DATA WITH CAUTION...ESPECIALLY
DEWPOINT OBSERVATIONS.

SCZ027-030-031-034>040-042>050-220600-
...SOUTH CAROLINA...

CITY           SKY/WX    TMP DP  RH WIND       PRES   REMARKS
N CHARLESTON   PTCLDY    64  53  67 NW10      29.92S
WATERFRONT PRK   N/A     66 N/A N/A W6          N/A
FORT JOHNSON   NOT AVBL
JOHNS ISLAND   CLEAR     63  57  82 NW9       29.92S
PINOPOLIS      NOT AVBL
MONCKS CORNER  FAIR      66  55  68 N7        29.93S
SUMMERVILLE    FAIR      57  55  94 CALM      29.95R
BEAUFORT MCAS  CLEAR     63  53  70 W7        29.94S
BEAUFORT ARPT  FAIR      64  55  72 W6        29.93F
HILTON HEAD IS NOT AVBL
GEORGETOWN     NOT AVBL
WALTERBORO     CLEAR     59  57  94 NW3       29.95S
ORANGEBURG     CLEAR     58  49  72 N3        29.96S
BARNWELL       FAIR      55  50  82 NW5       29.97S
AIKEN          FAIR      55  46  71 N3        30.01S
MANNING        FAIR      61  50  67 N5        29.95R
KINGSTREE      NOT AVBL
COLUMBIA       CLEAR     61  43  51 N5        29.97R
SUMTER         CLEAR     58  45  61 N9        29.95R
FLORENCE       CLOUDY    61  42  49 N12       29.94R
MYRTLE BEACH   CLOUDY    64  48  55 N12       29.91S
N MYRTLE BEACH PTCLDY    63  49  60 N7        29.90R

$$

GAZ063-065-086>088-099>101-113>116-118-119-134-136>141-150-220600-
...GEORGIA...

CITY           SKY/WX    TMP DP  RH WIND       PRES   REMARKS
SAVANNAH ARPT  CLEAR     60  54  80 W5        29.96S
HUNTER AAF     CLEAR     64  54  71 W7        29.94S
FORT STEWART   CLEAR     56  53  87 CALM      29.95S
STATESBORO     NOT AVBL
SYLVANIA       CLEAR     58  56  94 CALM      29.97S
CLAXTON        FAIR      54  54 100 CALM      29.97F
THOMSON        CLEAR     53  53 100 CALM      30.04S
AUGUSTA-BUSH   CLEAR     54  47  77 CALM      29.99R
AUGUSTA-DANIEL CLEAR     62  47  57 CALM      29.99R
SWAINSBORO     FAIR      54  54 100 MISG      29.99F FOG
VIDALIA        CLEAR     61  54  77 NW3       29.99S
ALMA           CLEAR     56  53  90 NW3       29.98S
WAYCROSS       CLEAR     60  58  94 CALM      29.97F
JESUP          FAIR      59  55  88 NW5       29.97S
BRUNSWICK      CLEAR     59  55  88 W3        29.97S
SAINT SIMONS   CLEAR     64  55  72 NW3       29.96S

$$

SCZ027-028-034-036>038-045-046-048>050-GAZ119-141-220600-
...LAKE AND SUPPLEMENTAL COASTAL OBSERVATIONS...

STATION/POSITION TIME  TEMP    WIND        PRES    WAVE   SWELL
                       AIR SEA DIR/SP/G            HT/PER HT/PER/DIR
                 (UTC) (F)     (DEG/KT/KT) (MB)    (FT/S) (FT/S/D)
UPR LAKE MARION  NOT AVBL
WINYAH BAY       0500   64     300/  7     1012.0S
LAKE MURRAY      0500   60     360/  2/  7 1014.6S
ACE BASIN NERRS  0500   63     280/  2     1013.0S
FORT PULASKI     0500   68     290/ 10/ 15 1014.3R
SAPELO ISLAND    NOT AVBL

$$

ANZ835-935-AMZ111-154-330-350-352-354-374-450-454-472-220600-
...C-MAN AND BUOY OBSERVATIONS...

STATION/POSITION TIME  TEMP    WIND        PRES    WAVE   SWELL
                       AIR SEA DIR/SP/G            HT/PER HT/PER/DIR
                 (UTC) (F)     (DEG/KT/KT) (MB)    (FT/S) (FT/S/D)
FOLLY BEACH CMAN 0500   64     270/  5/  8 1013.4F
BUOY 41004       0500   76 79  260/ 16/ 21 1012.0F   3/ 4   2/10
BUOY 41008       0500   74 76  320/ 12/ 14 1014.2F   1/12   2/130/12
5E ST. MARYS GA  0500      77                N/A     1/12
FRYING PAN BUOY  0500   74 75  240/ 14/ 16 1012.1F   3/ 4   2/ 90/ 9
BUOY 41025       0500   72     270/ 16/ 17 1009.6F   4/ 5   2/100/ 8
CAPE LOOKOUT NC  0500   71     260/ 13/ 16 1009.8F
BUOY 41002       0441   78 80  260/ 14/ 16 1012.1F   3/10   2/140/10
BUOY 41010       0500   79 80  240/ 12/ 14 1014.0F   2/10   2/ 80/10
BUOY 41012       NOT AVBL
ST AUGUSTINE FL  0500   69     250/  5/  6 1015.0F
CAPERS NEARSHORE 0400   72     270/ 14/ 16   N/A
FRIPP NEARSHORE  NOT AVBL


$$



USA.gov is the U.S. government's official web portal to all federal, state and local government web resources and services.